Tracking 30995 objects as of 5-Jul-2025
HD Live streaming from Space Station
objects crossing your sky now

SL-8 DEB *

Track SL-8 DEB * now!
10-day predictions


NORAD ID: 18510
Int'l Code: 1982-051F
Perigee: 694.2 km
Apogee: 710.3 km
Inclination: 74.0 °
Period: 98.7 minutes
Semi major axis: 7073 km
RCS: 0.0076 m2 (small)
Launch date: June 1, 1982
Source: Commonwealth of Independent States (former USSR) (CIS)
Launch site: PLESETSK MISSILE AND SPACE COMPLEX (PKMTR)

Note: This is SATELLITE DEBRIS
Your satellite tracking list
SOYUZ MS-13
Track 1 satellite(s)




NASA's NSSDC Master Catalog

Two Line Element Set (TLE):
1 18510U 82051F   25186.09701455  .00001481  00000-0  31868-3 0  9997
2 18510  73.9903 311.5606 0011348 114.4882 298.6068 14.59392200 38853
Source of the keplerian elements: AFSPC